Location: Breezy Point Observatory
(38.9725°N, 81.7133°W)
Time: 00:08:24
(UTC-04:00)

Hubble Space Telescope - Visible Passes

Search period start: 17 October 2017 00:00
Search period end: 27 October 2017 00:00
Orbit: 537 x 541 km, 28.5° (Epoch: 16 October)

Date Brightness Start Highest point End Pass type
(mag) Time Alt. Az. Time Alt. Az. Time Alt. Az.
20 Oct 3.2 20:28:18 10° S 20:29:13 12° S 20:29:13 12° S visible
21 Oct 2.9 20:17:32 10° SSW 20:19:41 14° SSE 20:19:41 14° SSE visible
22 Oct 2.8 20:06:56 10° SSW 20:09:26 16° S 20:10:06 15° SSE visible
23 Oct 2.8 19:56:26 10° SSW 19:59:09 17° S 20:00:30 15° SSE visible
24 Oct 2.8 19:46:01 10° SW 19:48:51 18° S 19:50:53 13° SE visible
25 Oct 2.8 19:35:38 10° SW 19:38:34 19° S 19:41:17 11° SE visible
25 Oct 3.8 21:16:36 10° SW 21:16:38 10° SW 21:16:38 10° SW visible
26 Oct 2.8 19:25:19 10° SW 19:28:16 19° S 19:31:13 10° SE visible
26 Oct 3.6 21:06:34 10° SW 21:07:03 11° SW 21:07:03 11° SW visible
